GW3723 Weather Reports


time (UTC)temp
C
wind
direction
speed
KPH
gust
KPH
rain 1hr
cm
rain 24hr
cm
rain mn
cm
humidity
%
barometer
mb
20260506004506 15 233 4.8 11.3 0.00 0.00 0.00 71 1011.2
20260506004003 15 221 3.2 11.3 0.00 0.00 0.00 71 1010.8
20260506003504 16 360 3.2 9.7 0.00 0.00 0.00 71 1010.9
20260506003003 16 73 1.6 9.7 0.00 0.00 0.00 70 1010.8
20260506002502 16 272 1.6 6.4 0.00 0.00 0.00 70 1010.6
20260506002009 16 251 1.6 11.3 0.00 0.00 0.00 70 1010.4
20260506001504 16 254 3.2 11.3 0.00 0.00 0.00 69 1010.3
20260506001003 16 360 0.0 16.1 0.00 0.00 0.00 69 1010.2
20260506000502 16 360 1.6 16.1 0.00 0.00 0.00 69 1010.2
20260506000016 16 360 6.4 12.9 0.00 0.00 0.00 69 1010.3
20260505235508 16 360 0.0 12.9 0.00 0.00 0.00 69 1010.3
20260505235003 16 360 1.6 17.7 0.00 0.00 0.00 69 1010.1
20260505234516 16 360 1.6 17.7 0.00 0.00 0.00 69 1010.1
20260505234002 16 360 4.8 25.7 0.00 0.00 0.00 68 1009.9
20260505233506 16 360 6.4 25.7 0.00 0.00 0.00 68 1009.7
20260505233011 16 360 6.4 25.7 0.00 0.00 0.00 68 1009.5
20260505232506 17 360 1.6 14.5 0.00 0.00 0.00 67 1009.7
20260505232003 17 53 1.6 9.7 0.00 0.00 0.00 67 1009.5
20260505231505 17 215 3.2 17.7 0.00 0.00 0.00 66 1009.5
20260505231002 17 213 8.0 17.7 0.00 0.00 0.00 66 1009.3
20260505230502 17 20 3.2 14.5 0.00 0.00 0.00 65 1009.2
20260505230005 18 246 3.2 20.9 0.00 0.00 0.00 64 1009.2
20260505225503 18 270 6.4 20.9 0.00 0.00 0.00 63 1009.4
20260505225004 18 109 4.8 14.5 0.00 0.00 0.00 62 1009.5
20260505224506 19 254 4.8 14.5 0.00 0.00 0.00 61 1009.6
20260505224007 19 227 3.2 17.7 0.00 0.00 0.00 61 1009.5
20260505223512 19 227 6.4 19.3 0.00 0.00 0.00 61 1009.6
20260505223013 20 110 3.2 19.3 0.00 0.00 0.00 60 1009.6
20260505222503 20 75 3.2 17.7 0.00 0.00 0.00 60 1009.4
20260505222005 20 239 6.4 17.7 0.00 0.00 0.00 60 1009.4
20260505221517 20 209 6.4 19.3 0.00 0.00 0.00 59 1009.3
20260505221002 20 141 1.6 19.3 0.00 0.00 0.00 59 1009.3
20260505220503 20 241 4.8 11.3 0.00 0.00 0.00 58 1009.2
20260505220013 20 115 3.2 12.9 0.00 0.00 0.00 58 1009.2
20260505215505 20 234 1.6 12.9 0.00 0.00 0.00 57 1009.1
20260505215004 21 184 4.8 16.1 0.00 0.00 0.00 57 1009.1
20260505214512 21 216 3.2 20.9 0.00 0.00 0.00 56 1009.0
20260505214004 21 352 4.8 20.9 0.00 0.00 0.00 56 1009.1
20260505213504 21 292 6.4 19.3 0.00 0.00 0.00 53 1009.1
20260505213009 22 231 4.8 17.7 0.00 0.00 0.00 52 1009.1
20260505212506 22 306 4.8 11.3 0.00 0.00 0.00 53 1009.0
20260505212007 22 234 6.4 20.9 0.00 0.00 0.00 53 1009.0
20260505211504 22 263 3.2 20.9 0.00 0.00 0.00 1009.0
20260505211009 22 135 3.2 14.5 0.00 0.00 0.00 1008.9
20260505210506 22 296 3.2 14.5 0.00 0.00 0.00 55 1008.8
20260505210007 22 18 1.6 14.5 0.00 0.00 0.00 55 1008.7
20260505205507 21 206 4.8 14.5 0.00 0.00 0.00 55 1008.7
20260505205006 21 159 4.8 14.5 0.00 0.00 0.00 55 1008.8
20260505204515 22 191 4.8 14.5 0.00 0.00 0.00 54 1008.8
20260505204004 22 132 4.8 14.5 0.00 0.00 0.00 55 1008.9
20260505203510 22 211 4.8 14.5 0.00 0.00 0.00 54 1009.0
20260505203009 22 297 3.2 12.9 0.00 0.00 0.00 54 1009.0
20260505202504 22 52 4.8 17.7 0.00 0.00 0.00 54 1009.0
20260505202004 22 175 4.8 17.7 0.00 0.00 0.00 54 1008.9
20260505201518 22 103 4.8 19.3 0.00 0.00 0.00 54 1008.9
20260505201007 22 196 3.2 19.3 0.00 0.00 0.00 55 1009.0
20260505200508 22 74 6.4 16.1 0.00 0.00 0.00 1009.0
20260505200010 22 101 3.2 17.7 0.00 0.00 0.00 55 1008.9
20260505195506 22 295 3.2 17.7 0.00 0.00 0.00 55 1008.9
20260505195010 22 238 6.4 17.7 0.00 0.00 0.00 55 1009.0
20260505194509 22 311 6.4 17.7 0.00 0.00 0.00 54 1008.9
20260505194001 22 215 4.8 17.7 0.00 0.00 0.00 54 1009.0
20260505193503 22 242 4.8 24.1 0.00 0.00 0.00 54 1009.0
20260505193012 22 104 4.8 24.1 0.00 0.00 0.00 54 1009.0
20260505192502 22 204 3.2 22.5 0.00 0.00 0.00 55 1009.0
20260505192002 22 76 6.4 22.5 0.00 0.00 0.00 54 1009.0
20260505191503 22 227 8.0 22.5 0.00 0.00 0.00 54 1009.1
20260505191003 22 244 9.7 22.5 0.00 0.00 0.00 54 1009.2
20260505190503 22 148 4.8 19.3 0.00 0.00 0.00 54 1009.3
20260505190003 22 240 6.4 20.9 0.00 0.00 0.00 55 1009.3
20260505185504 22 317 6.4 20.9 0.00 0.00 0.00 55 1009.2
20260505185002 23 302 6.4 17.7 0.00 0.00 0.00 53 1009.3
20260505184504 23 285 6.4 16.1 0.00 0.00 0.00 53 1009.2
20260505184004 23 158 6.4 16.1 0.00 0.00 0.00 52 1009.2
20260505183503 23 113 4.8 16.1 0.00 0.00 0.00 53 1009.3
20260505183004 23 304 4.8 19.3 0.00 0.00 0.00 53 1009.3
20260505182503 23 261 8.0 19.3 0.00 0.00 0.00 53 1009.3
20260505182004 23 138 4.8 17.7 0.00 0.00 0.00 52 1009.2
20260505181515 23 144 6.4 16.1 0.00 0.00 0.00 52 1009.3
20260505181004 23 225 8.0 19.3 0.00 0.00 0.00 52 1009.3
20260505180501 23 247 6.4 20.9 0.00 0.00 0.00 51 1009.3
20260505180003 24 271 8.0 20.9 0.00 0.00 0.00 52 1009.4
20260505175503 24 98 4.8 14.5 0.00 0.00 0.00 50 1009.4
20260505175002 24 155 4.8 19.3 0.00 0.00 0.00 51 1009.3
20260505174507 23 252 6.4 19.3 0.00 0.00 0.00 53 1009.2
20260505174004 23 184 6.4 19.3 0.00 0.00 0.00 50 1009.3
20260505173503 23 249 4.8 19.3 0.00 0.00 0.00 50 1009.4
20260505173003 23 234 4.8 16.1 0.00 0.00 0.00 49 1009.4
20260505172503 23 342 4.8 16.1 0.00 0.00 0.00 54 1009.4
20260505172002 23 164 3.2 20.9 0.00 0.00 0.00 54 1009.5
20260505171512 23 240 8.0 20.9 0.00 0.00 0.00 52 1009.5
20260505171002 23 246 3.2 16.1 0.00 0.00 0.00 51 1009.5
20260505170509 23 244 6.4 17.7 0.00 0.00 0.00 52 1009.7
20260505170010 23 250 8.0 17.7 0.00 0.00 0.00 53 1009.9
20260505165502 23 213 3.2 14.5 0.00 0.00 0.00 56 1009.9
20260505165003 23 182 3.2 12.9 0.00 0.00 0.00 54 1010.0
20260505164503 22 62 3.2 12.9 0.00 0.00 0.00 57 1010.1
20260505164002 22 344 4.8 12.9 0.00 0.00 0.00 57 1010.1
20260505163503 22 257 6.4 16.1 0.00 0.00 0.00 56 1010.2
20260505163004 22 203 8.0 19.3 0.00 0.00 0.00 55 1010.3
20260505162502 22 242 6.4 19.3 0.00 0.00 0.00 56 1010.3
20260505162003 22 162 6.4 19.3 0.00 0.00 0.00 57 1010.5
20260505161504 22 161 3.2 14.5 0.00 0.00 0.00 59 1010.5
20260505161002 22 175 8.0 16.1 0.00 0.00 0.00 57 1010.6
20260505160504 22 146 4.8 20.9 0.00 0.00 0.00 59 1010.7
20260505153004 22 197 3.2 14.5 0.00 0.00 0.00 59 1010.7
20260505152503 22 234 4.8 12.9 0.00 0.00 0.00 1010.8
20260505152006 22 185 6.4 16.1 0.00 0.00 0.00 1010.7
20260505151504 22 281 1.6 16.1 0.00 0.00 0.00 1010.8
20260505151003 21 188 3.2 14.5 0.00 0.00 0.00 60 1010.8
20260505150504 21 154 6.4 14.5 0.00 0.00 0.00 60 1010.7
20260505140507 17 232 3.2 9.7 0.00 0.00 0.00 70 1010.6
20260505125004 15 316 0.0 3.2 0.00 0.00 0.00 83 1011.1
20260505124508 14 301 1.6 3.2 0.00 0.00 0.00 84 1011.4
20260505124009 13 92 0.0 3.2 0.00 0.00 0.00 85 1011.5
20260505123506 13 110 1.6 3.2 0.00 0.00 0.00 85 1011.4
20260505123008 13 165 0.0 8.0 0.00 0.00 0.00 87 1011.3
20260505122506 13 272 0.0 8.0 0.00 0.00 0.00 89 1011.4
20260505122011 12 20 0.0 8.0 0.00 0.00 0.00 88 1011.4
20260505121504 12 207 3.2 8.0 0.00 0.00 0.00 89 1011.4
20260505121003 12 190 0.0 3.2 0.00 0.00 0.00 90 1011.5
20260505120509 12 43 1.6 8.0 0.00 0.00 0.00 91 1011.6
20260505120006 12 92 0.0 8.0 0.00 0.00 0.00 92 1011.6
20260505115505 12 223 1.6 9.7 0.00 0.00 0.00 93 1011.5
20260505115003 11 165 1.6 9.7 0.00 0.00 0.00 95 1011.6
20260505114508 11 122 1.6 6.4 0.00 0.00 0.00 96 1011.4
20260505114003 11 126 1.6 4.8 0.00 0.00 0.00 96 1011.3
20260505113508 10 138 0.0 6.4 0.00 0.00 0.00 96 1011.3
20260505113012 10 101 1.6 6.4 0.00 0.00 0.00 96 1011.1
20260505112506 10 360 1.6 6.4 0.00 0.00 0.00 96 1011.2
20260505112003 9 360 0.0 3.2 0.00 0.00 0.00 96 1011.2
20260505111517 9 128 0.0 3.2 0.00 0.00 0.00 96 1011.3
20260505111007 9 171 0.0 3.2 0.00 0.00 0.00 96 1011.2
20260505110511 8 139 0.0 3.2 0.00 0.00 0.00 96 1011.1
20260505102001 8 159 1.6 3.2 0.00 0.00 0.00 96 1010.6
20260505101503 8 169 0.0 3.2 0.00 0.00 0.00 96 1010.7
20260505101003 7 360 1.6 4.8 0.00 0.00 0.00 96 1010.6
20260505100502 7 109 0.0 4.8 0.00 0.00 0.00 96 1010.6
20260505100003 7 125 1.6 4.8 0.00 0.00 0.00 96 1010.5
20260505095503 7 130 1.6 3.2 0.00 0.00 0.00 96 1010.4
20260505095003 7 136 1.6 3.2 0.00 0.00 0.00 95 1010.4
20260505094502 7 85 1.6 4.8 0.00 0.00 0.00 96 1010.3
20260505094004 7 147 1.6 4.8 0.00 0.00 0.00 96 1010.3
20260505093506 7 119 1.6 3.2 0.00 0.00 0.00 96 1010.3
20260505093008 7 122 1.6 3.2 0.00 0.00 0.00 95 1010.3
20260505092504 7 118 1.6 3.2 0.00 0.00 0.00 95 1010.4
20260505092004 7 130 1.6 3.2 0.00 0.00 0.00 95 1010.3
20260505091503 7 100 0.0 3.2 0.00 0.00 0.00 95 1010.4
20260505091003 7 99 1.6 3.2 0.00 0.00 0.00 95 1010.4
20260505090503 7 137 1.6 3.2 0.00 0.00 0.00 95 1010.3
20260505090008 7 133 1.6 4.8 0.00 0.00 0.00 95 1010.3
20260505085503 7 119 3.2 4.8 0.00 0.00 0.00 95 1010.3
20260505085002 7 128 3.2 3.2 0.00 0.00 0.00 95 1010.4
20260505084505 7 128 3.2 3.2 0.00 0.00 0.00 95 1010.5
20260505084001 7 133 3.2 3.2 0.00 0.00 0.00 95 1010.6
20260505083502 7 139 1.6 4.8 0.00 0.00 0.00 95 1010.6
20260505083006 7 123 3.2 4.8 0.00 0.00 0.00 95 1010.6
20260505082506 7 140 3.2 4.8 0.00 0.00 0.00 94 1010.6
20260505082006 7 128 3.2 4.8 0.00 0.00 0.00 95 1010.6
20260505081504 7 134 3.2 4.8 0.00 0.00 0.00 94 1010.5
20260505081003 7 141 1.6 4.8 0.00 0.00 0.00 94 1010.6
20260505080503 7 124 3.2 4.8 0.00 0.00 0.00 94 1010.7
20260505080004 7 132 1.6 4.8 0.00 0.00 0.00 94 1010.7
20260505075503 7 113 3.2 4.8 0.00 0.00 0.00 94 1010.6
20260505075003 7 119 1.6 4.8 0.00 0.00 0.00 94 1010.6
20260505074505 7 136 3.2 4.8 0.00 0.00 0.00 94 1010.6
20260505074003 7 129 3.2 4.8 0.00 0.00 0.00 94 1010.7
20260505073505 7 105 1.6 4.8 0.00 0.00 0.00 94 1010.7
20260505073008 7 108 3.2 4.8 0.00 0.00 0.00 94 1010.7
20260505072502 7 130 3.2 4.8 0.00 0.00 0.00 94 1010.7
20260505072002 7 126 3.2 4.8 0.00 0.00 0.00 94 1010.7
20260505071505 7 117 3.2 4.8 0.00 0.00 0.00 94 1010.7
20260505071007 7 125 3.2 4.8 0.00 0.00 0.00 93 1010.7
20260505070502 7 126 3.2 4.8 0.00 0.00 0.00 93 1010.8
20260505070008 7 128 3.2 4.8 0.00 0.00 0.00 93 1010.8
20260505065504 7 122 3.2 4.8 0.00 0.00 0.00 93 1010.8
20260505065006 7 134 3.2 4.8 0.00 0.00 0.00 93 1010.8
20260505064504 7 132 3.2 4.8 0.00 0.00 0.00 93 1010.8
20260505064006 7 129 3.2 4.8 0.00 0.00 0.00 93 1010.9
20260505063506 7 105 3.2 4.8 0.00 0.00 0.00 92 1010.9
20260505063006 7 108 3.2 4.8 0.00 0.00 0.00 92 1011.0
20260505062505 7 115 1.6 4.8 0.00 0.00 0.00 92 1011.1
20260505062006 7 132 3.2 4.8 0.00 0.00 0.00 92 1011.0
20260505061515 7 136 3.2 4.8 0.00 0.00 0.00 92 1011.1
20260505061003 7 121 3.2 4.8 0.00 0.00 0.00 92 1011.1
20260505060503 7 96 3.2 4.8 0.00 0.00 0.00 92 1011.1
20260505060017 7 122 3.2 4.8 0.00 0.00 0.00 91 1011.2
20260505055511 7 127 3.2 4.8 0.00 0.00 0.00 91 1011.2
20260505055003 7 136 1.6 3.2 0.00 0.00 0.00 91 1011.3
20260505054510 7 112 1.6 3.2 0.00 0.00 0.00 91 1011.3
20260505054007 7 128 1.6 3.2 0.00 0.00 0.00 90 1011.3
20260505053501 7 103 1.6 3.2 0.00 0.00 0.00 90 1011.3
20260505053012 7 124 1.6 4.8 0.00 0.00 0.00 90 1011.2
20260505052506 7 111 1.6 4.8 0.00 0.00 0.00 90 1011.3
20260505052003 7 122 1.6 3.2 0.00 0.00 0.00 89 1011.3
20260505051505 7 124 1.6 3.2 0.00 0.00 0.00 89 1011.4
20260505051003 8 111 1.6 1.6 0.00 0.00 0.00 89 1011.4
20260505050506 8 115 1.6 3.2 0.00 0.00 0.00 88 1011.4
20260505041506 9 127 1.6 3.2 0.00 0.00 0.00 83 1011.8
20260505041003 10 135 1.6 3.2 0.00 0.00 0.00 82 1011.7
20260505040503 10 134 1.6 3.2 0.00 0.00 0.00 81 1011.7
20260505040009 10 97 1.6 4.8 0.00 0.00 0.00 80 1011.6
20260505035503 10 96 1.6 4.8 0.00 0.00 0.00 80 1011.6
20260505035003 10 118 1.6 6.4 0.00 0.00 0.00 79 1011.6
20260505034509 10 130 1.6 9.7 0.00 0.00 0.00 80 1011.6
20260505034008 11 155 3.2 8.0 0.00 0.00 0.00 79 1011.6
20260505033507 11 98 1.6 6.4 0.00 0.00 0.00 78 1011.6
20260505033016 11 86 1.6 6.4 0.00 0.00 0.00 78 1011.6
20260505032504 11 107 0.0 12.9 0.00 0.00 0.00 78 1011.6
20260505032007 11 153 3.2 11.3 0.00 0.00 0.00 78 1011.6
20260505031522 11 225 1.6 8.0 0.00 0.00 0.00 78 1011.7
20260505031007 11 265 3.2 8.0 0.00 0.00 0.00 78 1011.7
20260505030507 11 248 1.6 12.9 0.00 0.00 0.00 77 1011.7
20260505030006 11 175 0.0 12.9 0.00 0.00 0.00 77 1011.6
20260505025503 11 99 1.6 8.0 0.00 0.00 0.00 77 1011.7
20260505025004 11 189 1.6 8.0 0.00 0.00 0.00 77 1011.7
20260505024510 11 283 3.2 9.7 0.00 0.00 0.00 76 1011.6
20260505024008 11 119 3.2 9.7 0.00 0.00 0.00 76 1011.7
20260505023503 11 222 1.6 6.4 0.00 0.00 0.00 76 1011.7
20260505023010 11 187 1.6 6.4 0.00 0.00 0.00 76 1011.7
20260505022508 11 198 0.0 12.9 0.00 0.00 0.00 75 1011.6
20260505022010 11 287 1.6 12.9 0.00 0.00 0.00 75 1011.7
20260505021509 11 169 0.0 8.0 0.00 0.00 0.00 75 1011.6
20260505021007 11 217 1.6 4.8 0.00 0.00 0.00 74 1011.6
20260505020506 11 159 0.0 4.8 0.00 0.00 0.00 74 1011.6
20260505020029 11 208 1.6 4.8 0.00 0.00 0.00 74 1011.7
20260505015512 11 219 0.0 4.8 0.00 0.00 0.00 73 1011.7
20260505015007 11 237 1.6 4.8 0.00 0.00 0.00 73 1011.7
20260505014510 11 51 0.0 4.8 0.00 0.00 0.00 73 1011.7
20260505014003 12 248 1.6 6.4 0.00 0.00 0.00 72 1011.7
20260505013503 12 191 3.2 6.4 0.00 0.00 0.00 71 1011.7
20260505013016 12 259 1.6 6.4 0.00 0.00 0.00 71 1011.7
20260505012512 12 213 3.2 12.9 0.00 0.00 0.00 70 1011.6
20260505012004 12 192 0.0 14.5 0.00 0.00 0.00 70 1011.5
20260505011526 12 263 3.2 14.5 0.00 0.00 0.00 70 1011.4
20260505011008 12 160 0.0 11.3 0.00 0.00 0.00 69 1011.4
20260505010505 12 207 3.2 11.3 0.00 0.00 0.00 69 1011.3
20260505010016 12 214 3.2 12.9 0.00 0.00 0.00 68 1011.2
20260505005506 12 189 4.8 12.9 0.00 0.00 0.00 68 1011.1
20260505005008 12 201 6.4 12.9 0.00 0.00 0.00 68 1011.0